Regional Weather Roundup
Issued by NWS

Home | Current Version | Previous Version | Text Only | Print | Product List | Glossary Off
Versions: 1 2 3 4 5 6 7 8 9 10 11 12 13 14 15 16 17 18 19 20 21 22 23 24 25 26 27 28 29 30 31 32 33 34 35 36 37 38 39 40 41 42 43 44 45 46 47 48 49

000
ASUS43 KDMX 221507
RWRIA

WEATHER ROUNDUP FOR IOWA
NATIONAL WEATHER SERVICE DES MOINES IA
900 AM CST MON DEC 22 2014

NOTE: "FAIR" INDICATES FEW OR NO CLOUDS BELOW 12,000 FEET WITH NO
SIGNIFICANT WEATHER AND/OR OBSTRUCTIONS TO VISIBILITY.

* - THESE STATIONS ARE NOT NWS STATIONS...THUS NOT UNDER NWS
QUALITY CONTROL.  THEY ALSO DO NOT REPORT WEATHER SUCH
AS PRECIPITATION OR FOG.

IAZ001>003-012>014-020>022-031>034-043>046-221600-
   NORTHWEST IOWA

CITY           SKY/WX    TMP DP  RH WIND       PRES   REMARKS
CARROLL *      CLOUDY    39  39 100 SE14      29.56F FOG     WCI  31
CHEROKEE *     DRIZZLE   39  39 100 SE14G20   29.52S WCI  31
DENISON *      CLOUDY    39  39 100 S13G20    29.52S FOG     WCI  32
LE MARS *      CLOUDY    41  41 100 SE13      29.48F
ORANGE CITY *  DRIZZLE   41  39  93 SE12      29.48S
SHELDON *      MIX PCPN  39  39 100 SE18      29.48S WCI  30
SIOUX CITY     LGT RAIN  43  41  93 S14       29.49F FOG
SPENCER        LGT RAIN  39  37  92 SE18      29.53F FOG     WCI  30
STORM LAKE *   CLOUDY    39  39 100 SE18      29.53F FOG     WCI  30
$$

IAZ055>058-069>071-079>083-090>094-221600-
   SOUTHWEST IOWA

CITY           SKY/WX    TMP DP  RH WIND       PRES   REMARKS
ATLANTIC *     MIX PCPN  39  39 100 SE12G17   29.55F WCI  32
AUDUBON *      LGT RAIN  39  34  81 SE9       29.57S WCI  33
CLARINDA *     MIX PCPN  41  41 100 SE9       29.58F
COUNCIL BLFS * CLOUDY    41  41 100 SE15      29.52S FOG
CRESTON *      CLOUDY    39  39 100 SE13      29.58F FOG     WCI  32
HARLAN  *      MIX PCPN  39  39 100 S10G17    29.57F WCI  32
LAMONI         LGT RAIN  39  37  92 SE12      29.60F WCI  32
RED OAK *      CLOUDY    41  41 100 SE10      29.56S FOG
SHENANDOAH *   MIX PCPN  41  41 100 SE15      29.55F
$$

IAZ047>049-059>061-072>074-084-221600-
   CENTRAL IOWA

CITY           SKY/WX    TMP DP  RH WIND       PRES   REMARKS
AMES           CLOUDY    38  36  92 SE12      29.62F FOG     WCI  30
ANKENY *       MIX PCPN  39  37  93 SE10      29.62F WCI  32
CHARITON *     MIX PCPN  39  37  93 SE9G17    29.62F WCI  33
DES MOINES     LGT SNOW  40  36  86 SE12      29.62F FOG     WCI  33
GRINNELL*      DRIZZLE   37  36  93 SE12      29.66F WCI  30
KNOXVILLE *    MIX PCPN  39  36  87 SE10G17   29.63S WCI  32
MARSHALLTOWN   LGT RAIN  37  35  92 SE14      29.64F FOG     WCI  28
PELLA *        DRIZZLE   37  36  93 SE8       29.66F WCI  31
PERRY *        DRIZZLE   39  39 100 SE15      29.59F WCI  31
$$

IAZ004>006-015-016-023>025-035-036-221600-
   NORTH CENTRAL IOWA

CITY           SKY/WX    TMP DP  RH WIND       PRES   REMARKS
ALGONA *       CLOUDY    37  37 100 SE16G24   29.59S FOG     WCI  28
CLARION *      MIX PCPN  36  36 100 SE17      29.61F WCI  25
ESTHERVILLE    FOG       37  36  96 SE17      29.55F VSB 3/4 WCI  27
FORT DODGE *   CLOUDY    37  36  93 SE12      29.60S WCI  30
MASON CITY     LGT RAIN  35  34  96 SE15      29.65F FOG     WCI  25
FOREST CITY *  DRIZZLE   36  34  93 SE15G21   29.62S WCI  26
IOWA FALLS *   DRIZZLE   36  36 100 SE12      29.64F WCI  27
$$

IAZ007>011-017>019-026>030-037>042-050>054-066-221600-
   NORTHEAST IOWA

CITY           SKY/WX    TMP DP  RH WIND       PRES   REMARKS
CEDAR RAPIDS   CLOUDY    37  34  89 SE9       29.70F FOG     WCI  30
CHARLES CITY * CLOUDY    36  36 100 SE16      29.68F FOG     WCI  26
CLINTON *      CLOUDY    36  30  80 E16       29.80F WCI  26
DECORAH *      CLOUDY    34  34 100 SE12G21   29.71F FOG     WCI  25
DUBUQUE        CLOUDY    34  31  88 SE15      29.75F FOG     WCI  24
MONTICELLO *   CLOUDY    36  36 100 SE12      29.74F FOG     WCI  27
OELWEIN *      CLOUDY    34  34 100 SE14G21   29.71F FOG     WCI  24
WATERLOO       LGT RAIN  37  34  89 SE13      29.68F FOG     WCI  29
$$

IAZ064-065-067-068-078-221600-
   EAST CENTRAL IOWA

CITY           SKY/WX    TMP DP  RH WIND       PRES   REMARKS
DAVENPORT      CLOUDY    37  30  75 SE16      29.77F WCI  28
IOWA CITY      LGT RAIN  37  34  89 E7        29.74F FOG     WCI  32
MT. PLEASANT * LGT RAIN  36  34  93 SE10      29.71F WCI  28
MUSCATINE *    MIX PCPN  39  32  75 SE9G15    29.75F WCI  33
QUAD CITIES    CLOUDY    37  31  78 E14       29.77F WCI  28
$$

IAZ062-063-075>077-085>089-095>099-221600-
   SOUTHEAST IOWA

CITY           SKY/WX    TMP DP  RH WIND       PRES   REMARKS
BURLINGTON     LGT RAIN  37  34  89 SE13      29.72F FOG     WCI  29
FAIRFIELD *    MIX PCPN  37  34  87 SE10      29.69F WCI  30
FORT MADISON * DRIZZLE   39  36  87 SE10      29.72F WCI  32
KEOKUK *       MIX PCPN  37  36  93 SE10      29.70F WCI  30
OSKALOOSA *    CLOUDY    37  36  93 SE10      29.67F FOG     WCI  30
CENTERVILLE *  CLOUDY    37  37 100 SE9       29.65F WCI  31
OTTUMWA        LGT RAIN  38  34  85 SE9       29.66F FOG     WCI  31
WASHINGTON *   MIX PCPN  37  37 100 SE15      29.70F WCI  28
$$

ABBREVIATIONS USED IN REMARKS
   TC - TEMPERATURES IN CELSIUS
  WCI - WIND CHILL INDEX
   HX - HEAT INDEX
  VSB - VISIBILITY
$$



USA.gov is the U.S. government's official web portal to all federal, state and local government web resources and services.